Regional Weather Roundup
Issued by NWS Nashville, TN

Home | Current Version | Previous Version | Text Only | Print | Product List | Glossary On
Versions: 1 2 3 4 5 6 7 8 9 10 11 12 13 14 15 16 17 18 19 20 21 22 23 24 25 26 27 28 29 30 31 32 33 34 35 36 37 38 39 40 41 42 43 44 45 46 47 48 49 50
000
ASUS44 KOHX 291210
RWROHX
MIDDLE TENNESSEE HOURLY WEATHER ROUNDUP
NATIONAL WEATHER SERVICE NASHVILLE TN
700 AM CDT SAT APR 29 2017

NOTE: "FAIR" INDICATES FEW OR NO CLOUDS BELOW 12,000 FEET WITH
NO SIGNIFICANT WEATHER AND/OR OBSTRUCTIONS TO VISIBILITY.

* THESE REPORTS ARE NOT UNDER NWS QUALITY CONTROL AND MAY NOT
  REPORT WEATHER SUCH AS PRECIPITATION AND FOG.


TNZ005>011-023>034-057-059-062>066-078-080-291300
...NORTHERN MIDDLE TENNESSEE...

CITY           SKY/WX    TMP DP  RH WIND       PRES   REMARKS
CLARKSVILLE    CLOUDY    73  67  81 SE7       29.95R
CROSSVILLE     SUNNY     69  64  84 S6        30.11R
GALLATIN       MOSUNNY   75  68  78 S7G15     30.03R
DICKSON        PTSUNNY   72  67  84 S9        29.96R
LEBANON        PTSUNNY   73  67  81 SE7       29.99R
NASHVILLE      PTSUNNY   73  68  84 S9        29.99R
PORTLAND       CLOUDY    73  68  83 S8G14     29.99R
SMYRNA         PTSUNNY   73  68  84 S8        30.01R
SPARTA         SUNNY     72  66  83 S9        30.03S
SPRINGFIELD    PTSUNNY   73  68  83 S6        29.97R
WEST NASHVILLE PTSUNNY   73  68  83 VRB5      29.98R
$$
TNZ056-058-060-061-075>077-079-093>097-291300
...SOUTHERN MIDDLE TENNESSEE...

CITY           SKY/WX    TMP DP  RH WIND       PRES   REMARKS
COLUMBIA       SUNNY    N/A N/A N/A S9        29.97S
FAYETTEVILLE   SUNNY     70  66  88 S8        30.03R
MCMINNVILLE    SUNNY     73  66  78 VRB6      30.03F
MURFREESBORO   PTSUNNY   71  66  84 SE5       30.00
SHELBYVILLE    SUNNY     72  68  88 SE7       30.03R
TULLAHOMA      SUNNY     70  64  83 SE9       30.05R
WINCHESTER     SUNNY     72  66  83 SE8       30.06R
$$


...KEY TO REMARKS...
VSB - VISIBILITY IN MILES
WCI - WIND CHILL INDEX
HX  - HEAT INDEX




USA.gov is the U.S. government's official web portal to all federal, state and local government web resources and services.